(49495) = 1993 TR11 = 1999 CU1

Discovered at Oizumi on 1999-02-07 by T. Kobayashi.

Orbit

Orbit type: Main Belt

Note: WebGL enabled browser required.

epoch2024-03-31.0
epoch JD2460400.5
perihelion date2024-03-11.07631
perihelion JD2460380.57631
argument of perihelion (°)53.05664
ascending node (°)36.23776
inclination (°)5.42666
eccentricity0.1874277
perihelion distance (AU)2.1375847
Tisserand w.r.t. Jupiter3.4
ΔV w.r.t. Earth (km/sec)9.3
semimajor axis (AU)2.6306394
mean anomaly (°)4.60237
mean daily motion (°/day)0.23099990
aphelion distance (AU)3.124
period (years)4.27
P-vector [x]0.01443219
P-vector [y]0.88469591
P-vector [z]0.46594513
Q-vector [x]-0.99833179
Q-vector [y]-0.01330454
Q-vector [z]0.05618385
absolute magnitude14.89
phase slope0.15
uncertainty0
referenceMPEC 2024-F74
observations used2346
oppositions18
arc length (days)11141
first opposition used1993
last opposition used2024
residual rms (arc-secs)0.58
perturbers coarse indicatorM-v
perturbers precise indicator003Ek
first observation date used1993-09-19.0
last observation date used2024-03-21.0
computer nameMPCLINUX
JD of orbit computation2456966.919579
perihelion JD uncertainty (days)6.4719E-05
argument of perihelion uncertainty (°)3.4896E-05
ascending node uncertainty (°)3.1610E-05
inclination uncertainty (°)4.5634E-06
eccentricity uncertainty 3.0604E-08
perihelion distance uncertainty (AU)8.3664E-08
Minimum Orbit Intersection Distances (in AU)
for orbit epoch: 2460400.5, reference: E2024-GB3
Mercury1.82849
Venus1.41998
Earth1.15953
Mars0.5562
Jupiter2.11065
Saturn6.91684
Uranus15.8271
Neptune27.2166

Observations

2378 total observations over interval: 1993 09 19.39657 – 2024 03 21.122227
These data are available for download (format description).

Date (UT) J2000 RA J2000 Dec Magn Location Ref
1993 09 19.39657 02 02 24.22 +09 24 48.8   691 – Steward Observatory, Kitt Peak-Spacewatch MPS 5899
1993 09 19.42995 02 02 23.29 +09 24 47.2 18.8 V 691 – Steward Observatory, Kitt Peak-Spacewatch MPS 5899
1993 09 19.46304 02 02 22.41 +09 24 46.0   691 – Steward Observatory, Kitt Peak-Spacewatch MPS 5899
1993 10 13.37135 01 45 26.74 +08 43 05.6 17.5   675 – Palomar Mountain MPC 22743
1993 10 13.41493 01 45 24.18 +08 42 59.3   675 – Palomar Mountain MPC 22743
1993 10 15.28611 01 43 38.75 +08 38 14.4   675 – Palomar Mountain MPC 22743
1998 12 30.79485 10 57 27.83 +14 46 12.2 17.9   327 – Peking Observatory, Xinglong Station MPS 4494
1998 12 30.81222 10 57 28.16 +14 46 12.0   327 – Peking Observatory, Xinglong Station MPS 4494
1998 12 30.82936 10 57 28.48 +14 46 12.4   327 – Peking Observatory, Xinglong Station MPS 4494
1999 02 05.68814 10 49 17.39 +16 43 07.2 17.3   327 – Peking Observatory, Xinglong Station MPS 3872
1999 02 05.70877 10 49 16.43 +16 43 14.8   327 – Peking Observatory, Xinglong Station MPS 3872
1999 02 05.73050 10 49 15.41 +16 43 20.6   327 – Peking Observatory, Xinglong Station MPS 3872
1999 02 07.71780 10 47 41.47 +16 53 14.9 18.5   411 – Oizumi MPS 3872
1999 02 07.73681 10 47 40.60 +16 53 20.0   411 – Oizumi MPS 3872
1999 02 08.56775 10 47 00.17 +16 57 28.1   411 – Oizumi MPS 3872
1999 02 08.58227 10 46 59.38 +16 57 33.4   411 – Oizumi MPS 3872
1999 02 09.71141 10 46 02.64 +17 03 10.2 16.9   327 – Peking Observatory, Xinglong Station MPS 3872
1999 02 09.72147 10 46 02.13 +17 03 13.3   327 – Peking Observatory, Xinglong Station MPS 3872
1999 02 09.73186 10 46 01.57 +17 03 16.1   327 – Peking Observatory, Xinglong Station MPS 3872
1999 02 10.41324 10 45 26.50 +17 06 39.2 17.6   704 – Lincoln Laboratory ETS, New Mexico MPS 3872
1999 02 10.43423 10 45 25.40 +17 06 45.2 18.0   704 – Lincoln Laboratory ETS, New Mexico MPS 3872
1999 02 10.45580 10 45 24.19 +17 06 51.6 18.0   704 – Lincoln Laboratory ETS, New Mexico MPS 3872
1999 02 10.47671 10 45 23.05 +17 06 58.2 18.5   704 – Lincoln Laboratory ETS, New Mexico MPS 3872
1999 02 10.49802 10 45 21.96 +17 07 03.8 18.9   704 – Lincoln Laboratory ETS, New Mexico MPS 3872
1999 02 13.38161 10 42 49.08 +17 21 13.3 17.3 R 699 – Lowell Observatory-LONEOS MPS 4154
1999 02 13.40461 10 42 47.69 +17 21 20.4   699 – Lowell Observatory-LONEOS MPS 4154
1999 02 13.41847 10 42 46.96 +17 21 24.5 18.2   704 – Lincoln Laboratory ETS, New Mexico MPS 3872
1999 02 13.42758 10 42 46.42 +17 21 26.6   699 – Lowell Observatory-LONEOS MPS 4154
1999 02 13.43248 10 42 46.21 +17 21 27.4 18.7   704 – Lincoln Laboratory ETS, New Mexico MPS 3872
1999 02 13.44650 10 42 45.26 +17 21 32.8 18.6   704 – Lincoln Laboratory ETS, New Mexico MPS 3872
1999 02 13.46053 10 42 44.53 +17 21 36.1 18.6   704 – Lincoln Laboratory ETS, New Mexico MPS 3872
1999 02 14.55003 10 41 45.11 +17 26 49.4   411 – Oizumi MPS 4154
1999 02 14.56098 10 41 44.47 +17 26 53.4   411 – Oizumi MPS 4154
1999 02 21.56387 10 35 03.23 +17 58 20.3   411 – Oizumi MPS 4154
1999 02 21.57657 10 35 02.47 +17 58 23.3   411 – Oizumi MPS 4154
1999 03 16.55779 10 14 42.93 +18 52 07.2   411 – Oizumi MPS 4154
1999 03 16.57050 10 14 42.37 +18 52 06.2   411 – Oizumi MPS 4154
1999 03 19.11267 10 13 02.03 +18 52 09.7 18.6   704 – Lincoln Laboratory ETS, New Mexico MPS 4154
1999 03 19.13076 10 13 01.41 +18 52 10.2 18.6   704 – Lincoln Laboratory ETS, New Mexico MPS 4154
1999 03 19.14879 10 13 00.67 +18 52 08.9 18.6   704 – Lincoln Laboratory ETS, New Mexico MPS 4154
1999 03 20.11210 10 12 25.30 +18 51 51.3 18.6   704 – Lincoln Laboratory ETS, New Mexico MPS 4154
1999 03 20.13006 10 12 24.61 +18 51 50.8 19.2   704 – Lincoln Laboratory ETS, New Mexico MPS 4154
1999 03 20.14809 10 12 23.76 +18 51 50.5 19.2   704 – Lincoln Laboratory ETS, New Mexico MPS 4154
1999 03 20.16653 10 12 23.30 +18 51 50.9 19.2   704 – Lincoln Laboratory ETS, New Mexico MPS 4154
1999 03 23.17881 10 10 42.26 +18 49 44.7 18.5   704 – Lincoln Laboratory ETS, New Mexico MPS 4154
1999 03 23.20794 10 10 41.25 +18 49 42.7 18.5   704 – Lincoln Laboratory ETS, New Mexico MPS 4154
1999 03 23.22241 10 10 40.73 +18 49 42.4 18.5   704 – Lincoln Laboratory ETS, New Mexico MPS 4154
2001 07 25.38212 22 23 04.99 -18 25 18.8 20.9   608 – Haleakala-AMOS MPS 32231
2001 07 25.39317 22 23 04.62 -18 25 21.5 20.2   608 – Haleakala-AMOS MPS 32231
2001 07 25.40381 22 23 04.20 -18 25 24.6 20.0   608 – Haleakala-AMOS MPS 32231
2001 07 30.33720 22 19 56.50 -18 48 38.8 18.3   704 – Lincoln Laboratory ETS, New Mexico MPS 32231
2001 07 30.34833 22 19 56.05 -18 48 41.3 18.3   704 – Lincoln Laboratory ETS, New Mexico MPS 32231
2001 07 30.38179 22 19 54.58 -18 48 51.2 19.3   704 – Lincoln Laboratory ETS, New Mexico MPS 32231
2001 08 02.59464 22 17 36.82 -19 04 26.9 20.7   608 – Haleakala-AMOS MPS 32755
2001 08 02.60506 22 17 36.34 -19 04 30.1 20.0   608 – Haleakala-AMOS MPS 32755
2001 08 02.61571 22 17 35.87 -19 04 33.0 19.9   608 – Haleakala-AMOS MPS 32755
2001 08 10.45625 22 11 16.91 -19 43 04.6 20.6   608 – Haleakala-AMOS MPS 32755
2001 08 10.46701 22 11 16.40 -19 43 07.1 19.9   608 – Haleakala-AMOS MPS 32755
2001 08 10.47777 22 11 15.80 -19 43 10.2 20.7   608 – Haleakala-AMOS MPS 32755
2001 08 15.35994 22 06 55.95 -20 06 25.8 19.3   608 – Haleakala-AMOS MPS 32755
2001 08 15.37106 22 06 55.31 -20 06 28.5 19.2   608 – Haleakala-AMOS MPS 32755
2001 08 15.38221 22 06 54.73 -20 06 32.3 19.3   608 – Haleakala-AMOS MPS 32755
2001 08 15.56966 22 06 44.10 -20 07 23.5 19.1   608 – Haleakala-AMOS MPS 32755
2001 08 15.58073 22 06 43.47 -20 07 26.5 19.8   608 – Haleakala-AMOS MPS 32755
2001 08 15.59149 22 06 42.88 -20 07 29.5 19.6   608 – Haleakala-AMOS MPS 32755
2001 08 19.28584 22 03 18.44 -20 24 10.2 19.4   704 – Lincoln Laboratory ETS, New Mexico MPS 33172
2001 08 19.29853 22 03 17.67 -20 24 12.8 19.2   704 – Lincoln Laboratory ETS, New Mexico MPS 33172
2001 08 19.31134 22 03 17.01 -20 24 16.3 19.2   704 – Lincoln Laboratory ETS, New Mexico MPS 33172
2001 08 21.27956 22 01 26.52 -20 32 42.8 18.8   704 – Lincoln Laboratory ETS, New Mexico MPS 33172
2001 08 21.29189 22 01 25.80 -20 32 45.7 18.9   704 – Lincoln Laboratory ETS, New Mexico MPS 33172
2001 08 21.30451 22 01 25.07 -20 32 49.9 18.9   704 – Lincoln Laboratory ETS, New Mexico MPS 33172
2001 09 11.19359 21 43 02.66 -21 34 09.5 19.0   704 – Lincoln Laboratory ETS, New Mexico MPS 34087
2001 09 11.20772 21 43 02.04 -21 34 10.7 19.4   704 – Lincoln Laboratory ETS, New Mexico MPS 34087
2001 09 11.22233 21 43 01.33 -21 34 12.0 19.8   704 – Lincoln Laboratory ETS, New Mexico MPS 34087
2001 09 11.23641 21 43 00.69 -21 34 12.9 19.6   704 – Lincoln Laboratory ETS, New Mexico MPS 34087
2002 10 04.43248 06 59 03.51 +26 32 28.4 18.8   704 – Lincoln Laboratory ETS, New Mexico MPS 62678
2002 10 04.44805 06 59 05.00 +26 32 29.5 19.1   704 – Lincoln Laboratory ETS, New Mexico MPS 62678
2002 10 04.46396 06 59 06.43 +26 32 29.8 19.5   704 – Lincoln Laboratory ETS, New Mexico MPS 62678
2002 10 04.47955 06 59 08.00 +26 32 31.3 19.4   704 – Lincoln Laboratory ETS, New Mexico MPS 62678
2002 10 10.42813 07 08 20.19 +26 37 19.9 19.6   704 – Lincoln Laboratory ETS, New Mexico MPS 62678
2002 10 10.44413 07 08 21.58 +26 37 20.0 19.4   704 – Lincoln Laboratory ETS, New Mexico MPS 62678
2002 10 10.47618 07 08 24.42 +26 37 21.8 18.7   704 – Lincoln Laboratory ETS, New Mexico MPS 62678
2002 11 02.42842 07 37 22.71 +27 03 54.6 18.0 R 699 – Lowell Observatory-LONEOS MPS 65420
2002 11 02.44248 07 37 23.49 +27 03 55.4   699 – Lowell Observatory-LONEOS MPS 65420
2002 11 02.45651 07 37 24.32 +27 03 56.7   699 – Lowell Observatory-LONEOS MPS 65420
2002 11 02.47055 07 37 25.14 +27 03 59.6   699 – Lowell Observatory-LONEOS MPS 65420
2002 11 14.42778 07 47 10.65 +27 30 30.6 19.6   704 – Lincoln Laboratory ETS, New Mexico MPS 65420
2002 11 14.46182 07 47 11.98 +27 30 38.4 18.7   704 – Lincoln Laboratory ETS, New Mexico MPS 65420
2002 11 14.47889 07 47 12.60 +27 30 41.6 18.9   704 – Lincoln Laboratory ETS, New Mexico MPS 65420
2002 11 27.42637 07 52 29.52 +28 14 28.2 18.1 R 699 – Lowell Observatory-LONEOS MPS 69309
2002 11 27.44431 07 52 29.66 +28 14 32.1   699 – Lowell Observatory-LONEOS MPS 69309
